Language: 


Des rapports , des résumés tant et plus, au choix de chacun....


Données Historiques de Météogheer
Journalier Rapport pour Mars 2, 2018 Unitée:  Métrique    Impériale   Les deux
Suivant Jour »
Journalier Hebdomadaire Mensuel Annuel Sur mesure
  Max: Min: Moyenne:
Température: 0.7 °C -2.6 °C -0.7 °C
Point de rosée: -1.0 °C -13.0 °C -7.1 °C
Humidité: 94% 40% 68%
Vent: 29.1km/h 0.0km/h 14.6km/h
Rafales: 35.2km/h - -
Vent- - East
Pression: 994.1 hPa 989.1 hPa -
Pluie: 0.0 mm    
Historical Graphs
 
 
Données tabulaires pour Mars 2, 2018
Heure Température Point de rosée Pression Vent Vent Rafales Humidité Pluie Taux (Horaire) Conditions
00:01 0.7 °C -11.0 °C 994.1 hPa East 16.9 km/h 24.5 km/h 40% 0.0 mm
00:06 0.7 °C -11.0 °C 994.1 hPa East 20.9 km/h 24.5 km/h 40% 0.0 mm
00:11 0.7 °C -11.0 °C 994.1 hPa ENE 15.4 km/h 24.5 km/h 40% 0.0 mm
00:16 0.7 °C -11.0 °C 994.1 hPa NE 21.2 km/h 21.2 km/h 40% 0.0 mm
00:21 0.7 °C -11.0 °C 994.1 hPa East 27.0 km/h 27.0 km/h 40% 0.0 mm
00:26 0.7 °C -11.0 °C 994.1 hPa East 21.2 km/h 27.0 km/h 40% 0.0 mm
00:31 0.7 °C -11.0 °C 993.1 hPa NNE 17.2 km/h 27.7 km/h 40% 0.0 mm
00:36 0.6 °C -11.0 °C 993.1 hPa ENE 14.0 km/h 27.7 km/h 40% 0.0 mm
00:41 0.6 °C -11.0 °C 993.1 hPa ENE 13.0 km/h 24.5 km/h 40% 0.0 mm
00:46 0.6 °C -11.0 °C 993.1 hPa ENE 28.5 km/h 28.5 km/h 40% 0.0 mm
00:51 0.6 °C -11.0 °C 993.1 hPa ENE 19.8 km/h 28.5 km/h 40% 0.0 mm
00:56 0.6 °C -11.0 °C 993.1 hPa East 24.5 km/h 27.7 km/h 40% 0.0 mm
01:01 0.5 °C -11.0 °C 993.1 hPa East 15.8 km/h 24.5 km/h 40% 0.0 mm
01:06 0.5 °C -11.0 °C 993.1 hPa ENE 14.0 km/h 24.5 km/h 41% 0.0 mm
01:11 0.5 °C -11.0 °C 993.1 hPa ESE 20.1 km/h 24.5 km/h 41% 0.0 mm
01:16 0.5 °C -11.0 °C 992.1 hPa East 15.8 km/h 24.5 km/h 41% 0.0 mm
01:21 0.5 °C -11.0 °C 992.1 hPa East 16.9 km/h 27.4 km/h 41% 0.0 mm
01:26 0.5 °C -11.0 °C 992.1 hPa East 16.6 km/h 28.8 km/h 41% 0.0 mm
01:31 0.4 °C -11.0 °C 993.1 hPa East 23.3 km/h 28.8 km/h 41% 0.0 mm
01:37 0.4 °C -11.0 °C 993.1 hPa East 17.2 km/h 23.3 km/h 41% 0.0 mm
01:42 0.4 °C -11.0 °C 993.1 hPa NE 17.7 km/h 26.7 km/h 41% 0.0 mm
01:47 0.4 °C -11.0 °C 993.1 hPa East 24.8 km/h 26.7 km/h 41% 0.0 mm
01:52 0.4 °C -11.0 °C 993.1 hPa East 18.3 km/h 24.8 km/h 41% 0.0 mm
01:57 0.3 °C -11.0 °C 993.1 hPa East 12.6 km/h 24.8 km/h 41% 0.0 mm
02:02 0.3 °C -11.0 °C 994.1 hPa East 16.3 km/h 29.1 km/h 41% 0.0 mm
02:07 0.3 °C -11.0 °C 994.1 hPa East 16.9 km/h 29.1 km/h 41% 0.0 mm
02:12 0.3 °C -11.0 °C 994.1 hPa NNE 18.0 km/h 28.5 km/h 41% 0.0 mm
02:17 0.3 °C -11.0 °C 993.1 hPa East 13.0 km/h 28.5 km/h 41% 0.0 mm
02:22 0.2 °C -11.0 °C 993.1 hPa ENE 13.7 km/h 27.0 km/h 41% 0.0 mm
02:27 0.2 °C -11.0 °C 993.1 hPa ENE 24.8 km/h 24.8 km/h 41% 0.0 mm
02:32 0.2 °C -11.0 °C 993.1 hPa ENE 24.5 km/h 24.8 km/h 41% 0.0 mm
02:37 0.1 °C -11.0 °C 993.1 hPa ENE 16.6 km/h 30.2 km/h 41% 0.0 mm
02:42 0.1 °C -11.0 °C 993.1 hPa ENE 21.9 km/h 30.2 km/h 41% 0.0 mm
02:47 0.1 °C -11.0 °C 992.1 hPa East 18.0 km/h 28.5 km/h 41% 0.0 mm
02:52 0.1 °C -11.0 °C 992.1 hPa NE 13.7 km/h 28.5 km/h 41% 0.0 mm
02:57 0.1 °C -11.0 °C 992.1 hPa East 16.9 km/h 25.9 km/h 41% 0.0 mm
03:02 0.1 °C -11.0 °C 992.1 hPa ENE 17.2 km/h 31.4 km/h 41% 0.0 mm
03:07 0.0 °C -12.0 °C 992.1 hPa ENE 24.8 km/h 31.4 km/h 41% 0.0 mm
03:12 0.0 °C -12.0 °C 992.1 hPa NE 20.6 km/h 28.0 km/h 41% 0.0 mm
03:17 0.0 °C -12.0 °C 992.1 hPa ENE 20.1 km/h 28.0 km/h 41% 0.0 mm
03:22 -0.1 °C -12.0 °C 992.1 hPa ENE 14.0 km/h 30.9 km/h 41% 0.0 mm
03:28 -0.1 °C -12.0 °C 992.1 hPa NE 15.4 km/h 30.9 km/h 41% 0.0 mm
03:38 -0.1 °C -12.0 °C 991.1 hPa ENE 16.3 km/h 27.4 km/h 41% 0.0 mm
03:43 -0.2 °C -12.0 °C 991.1 hPa ENE 21.6 km/h 24.8 km/h 41% 0.0 mm
03:48 -0.2 °C -12.0 °C 991.1 hPa East 12.6 km/h 24.8 km/h 41% 0.0 mm
03:53 -0.2 °C -12.0 °C 991.1 hPa ENE 13.7 km/h 24.5 km/h 41% 0.0 mm
03:58 -0.3 °C -13.0 °C 991.1 hPa ENE 16.6 km/h 24.5 km/h 41% 0.0 mm
04:03 -0.3 °C -13.0 °C 991.1 hPa NNE 21.2 km/h 24.5 km/h 41% 0.0 mm
04:08 -0.3 °C -13.0 °C 991.1 hPa ENE 28.0 km/h 30.6 km/h 41% 0.0 mm
04:13 -0.3 °C -13.0 °C 991.1 hPa ENE 17.2 km/h 30.6 km/h 41% 0.0 mm
04:18 -0.3 °C -13.0 °C 991.1 hPa East 21.2 km/h 30.2 km/h 41% 0.0 mm
04:23 -0.3 °C -13.0 °C 991.1 hPa East 21.9 km/h 30.2 km/h 41% 0.0 mm
04:28 -0.4 °C -13.0 °C 991.1 hPa ENE 17.7 km/h 24.8 km/h 41% 0.0 mm
04:33 -0.4 °C -13.0 °C 991.1 hPa ENE 19.8 km/h 25.6 km/h 41% 0.0 mm
04:38 -0.4 °C -13.0 °C 991.1 hPa ENE 20.6 km/h 25.6 km/h 41% 0.0 mm
04:43 -0.5 °C -13.0 °C 991.1 hPa East 19.1 km/h 27.7 km/h 41% 0.0 mm
04:48 -0.5 °C -13.0 °C 991.1 hPa ENE 12.6 km/h 27.7 km/h 42% 0.0 mm
04:53 -0.5 °C -13.0 °C 991.1 hPa NNE 12.6 km/h 26.7 km/h 42% 0.0 mm
04:58 -0.5 °C -13.0 °C 991.1 hPa ENE 28.5 km/h 33.1 km/h 42% 0.0 mm
05:03 -0.5 °C -13.0 °C 991.1 hPa ENE 22.4 km/h 33.1 km/h 42% 0.0 mm
05:08 -0.5 °C -13.0 °C 991.1 hPa NE 17.2 km/h 28.0 km/h 42% 0.0 mm
05:13 -0.5 °C -13.0 °C 991.1 hPa ENE 27.0 km/h 28.0 km/h 42% 0.0 mm
05:18 -0.5 °C -13.0 °C 990.1 hPa East 27.7 km/h 29.1 km/h 42% 0.0 mm
05:24 -0.5 °C -13.0 °C 990.1 hPa ENE 24.8 km/h 31.7 km/h 42% 0.0 mm
05:29 -0.6 °C -13.0 °C 990.1 hPa NE 24.8 km/h 29.9 km/h 42% 0.0 mm
05:34 -0.6 °C -13.0 °C 990.1 hPa ENE 17.7 km/h 29.9 km/h 42% 0.0 mm
05:39 -0.6 °C -13.0 °C 990.1 hPa East 24.8 km/h 29.1 km/h 42% 0.0 mm
05:44 -0.6 °C -13.0 °C 990.1 hPa ENE 24.8 km/h 29.1 km/h 42% 0.0 mm
05:49 -0.7 °C -13.0 °C 990.1 hPa East 27.7 km/h 27.7 km/h 42% 0.0 mm
05:54 -0.7 °C -12.0 °C 990.1 hPa East 16.3 km/h 27.7 km/h 43% 0.0 mm
05:59 -0.8 °C -13.0 °C 989.1 hPa East 20.1 km/h 23.8 km/h 42% 0.0 mm
06:04 -0.9 °C -13.0 °C 989.1 hPa NE 20.1 km/h 24.5 km/h 42% 0.0 mm
06:09 -1.0 °C -13.0 °C 989.1 hPa ENE 19.5 km/h 27.4 km/h 43% 0.0 mm
06:14 -1.0 °C -13.0 °C 990.1 hPa ENE 23.0 km/h 33.5 km/h 43% 0.0 mm
06:19 -1.1 °C -13.0 °C 990.1 hPa ENE 17.2 km/h 33.5 km/h 43% 0.0 mm
06:24 -1.2 °C -13.0 °C 990.1 hPa East 16.3 km/h 28.0 km/h 43% 0.0 mm
06:29 -1.2 °C -12.0 °C 990.1 hPa ENE 24.5 km/h 30.9 km/h 44% 0.0 mm
06:34 -1.2 °C -12.0 °C 990.1 hPa ENE 20.9 km/h 30.9 km/h 44% 0.0 mm
06:39 -1.3 °C -12.0 °C 990.1 hPa ENE 25.3 km/h 26.2 km/h 44% 0.0 mm
06:44 -1.3 °C -12.0 °C 990.1 hPa East 23.0 km/h 27.4 km/h 44% 0.0 mm
06:49 -1.3 °C -12.0 °C 990.1 hPa ENE 19.5 km/h 28.5 km/h 45% 0.0 mm
06:54 -1.4 °C -12.0 °C 990.1 hPa ENE 19.1 km/h 28.5 km/h 45% 0.0 mm
06:59 -1.4 °C -12.0 °C 989.1 hPa ENE 27.4 km/h 30.9 km/h 45% 0.0 mm
07:04 -1.4 °C -12.0 °C 989.1 hPa ENE 17.2 km/h 30.9 km/h 46% 0.0 mm
07:09 -1.4 °C -12.0 °C 989.1 hPa East 16.9 km/h 28.0 km/h 46% 0.0 mm
07:14 -1.5 °C -12.0 °C 989.1 hPa NNE 21.9 km/h 27.7 km/h 47% 0.0 mm
07:19 -1.5 °C -12.0 °C 989.1 hPa East 17.7 km/h 30.2 km/h 48% 0.0 mm
07:24 -1.5 °C -11.0 °C 989.1 hPa ENE 14.0 km/h 35.2 km/h 49% 0.0 mm
07:30 -1.5 °C -11.0 °C 989.1 hPa ENE 16.6 km/h 35.2 km/h 49% 0.0 mm
07:35 -1.6 °C -11.0 °C 989.1 hPa ENE 23.8 km/h 30.2 km/h 50% 0.0 mm
07:40 -1.6 °C -11.0 °C 989.1 hPa ENE 16.9 km/h 30.2 km/h 50% 0.0 mm
07:45 -1.6 °C -11.0 °C 989.1 hPa NE 18.0 km/h 32.3 km/h 49% 0.0 mm
07:50 -1.6 °C -11.0 °C 989.1 hPa East 23.8 km/h 32.3 km/h 49% 0.0 mm
07:55 -1.7 °C -11.0 °C 989.1 hPa ENE 17.2 km/h 29.1 km/h 49% 0.0 mm
08:00 -1.6 °C -12.0 °C 990.1 hPa East 23.0 km/h 28.5 km/h 48% 0.0 mm
08:05 -1.6 °C -12.0 °C 990.1 hPa ENE 22.7 km/h 28.0 km/h 48% 0.0 mm
08:10 -1.6 °C -12.0 °C 990.1 hPa East 24.8 km/h 28.0 km/h 48% 0.0 mm
08:15 -1.5 °C -12.0 °C 990.1 hPa NE 20.1 km/h 28.5 km/h 47% 0.0 mm
08:20 -1.5 °C -12.0 °C 990.1 hPa NNE 13.7 km/h 28.5 km/h 47% 0.0 mm
08:25 -1.4 °C -12.0 °C 990.1 hPa NE 16.9 km/h 24.8 km/h 47% 0.0 mm
08:30 -1.4 °C -12.0 °C 991.1 hPa ENE 16.9 km/h 24.5 km/h 46% 0.0 mm
08:35 -1.4 °C -12.0 °C 991.1 hPa ENE 20.6 km/h 29.9 km/h 46% 0.0 mm
08:41 -1.4 °C -12.0 °C 991.1 hPa ENE 12.2 km/h 29.9 km/h 46% 0.0 mm
08:46 -1.4 °C -11.0 °C 991.1 hPa East 18.3 km/h 23.0 km/h 48% 0.0 mm
08:51 -1.4 °C -11.0 °C 991.1 hPa ENE 24.5 km/h 24.5 km/h 48% 0.0 mm
08:56 -1.5 °C -12.0 °C 991.1 hPa ENE 24.8 km/h 27.7 km/h 48% 0.0 mm
09:01 -1.5 °C -11.0 °C 991.1 hPa East 17.2 km/h 32.0 km/h 50% 0.0 mm
09:06 -1.6 °C -11.0 °C 991.1 hPa ENE 16.9 km/h 32.0 km/h 51% 0.0 mm
09:11 -1.6 °C -11.0 °C 991.1 hPa ENE 18.0 km/h 27.0 km/h 51% 0.0 mm
09:16 -1.6 °C -11.0 °C 991.1 hPa ENE 19.5 km/h 25.3 km/h 51% 0.0 mm
09:21 -1.6 °C -11.0 °C 991.1 hPa ENE 20.6 km/h 25.3 km/h 51% 0.0 mm
09:26 -1.7 °C -11.0 °C 991.1 hPa East 12.6 km/h 24.5 km/h 52% 0.0 mm
09:31 -1.7 °C -10.0 °C 991.1 hPa ENE 25.9 km/h 27.7 km/h 53% 0.0 mm
09:36 -1.7 °C -10.0 °C 991.1 hPa East 16.6 km/h 27.7 km/h 54% 0.0 mm
09:41 -1.7 °C -10.0 °C 991.1 hPa NE 16.9 km/h 26.7 km/h 54% 0.0 mm
09:46 -1.7 °C -10.0 °C 990.1 hPa East 29.1 km/h 29.1 km/h 56% 0.0 mm
09:51 -1.9 °C -9.0 °C 990.1 hPa East 16.3 km/h 29.1 km/h 59% 0.0 mm
09:56 -1.8 °C -9.0 °C 990.1 hPa ENE 12.2 km/h 29.1 km/h 60% 0.0 mm
10:01 -1.8 °C -9.0 °C 991.1 hPa ENE 18.3 km/h 26.7 km/h 61% 0.0 mm
10:06 -1.9 °C -8.0 °C 991.1 hPa ESE 20.6 km/h 27.7 km/h 64% 0.0 mm
10:11 -2.2 °C -7.0 °C 991.1 hPa East 19.8 km/h 28.5 km/h 70% 0.0 mm
10:16 -2.3 °C -7.0 °C 991.1 hPa East 19.8 km/h 28.5 km/h 72% 0.0 mm
10:21 -2.4 °C -7.0 °C 991.1 hPa East 15.4 km/h 25.6 km/h 75% 0.0 mm
10:26 -2.5 °C -7.0 °C 991.1 hPa East 21.2 km/h 22.7 km/h 78% 0.0 mm
10:31 -2.6 °C -6.0 °C 991.1 hPa East 10.5 km/h 25.6 km/h 79% 0.0 mm
10:36 -2.6 °C -6.0 °C 991.1 hPa East 16.9 km/h 25.6 km/h 79% 0.0 mm
10:41 -2.5 °C -6.0 °C 991.1 hPa East 11.9 km/h 24.8 km/h 81% 0.0 mm
10:47 -2.4 °C -6.0 °C 991.1 hPa ENE 13.7 km/h 20.6 km/h 82% 0.0 mm
10:52 -2.4 °C -6.0 °C 991.1 hPa East 12.6 km/h 20.9 km/h 83% 0.0 mm
10:57 -2.3 °C -5.0 °C 991.1 hPa East 16.3 km/h 21.2 km/h 84% 0.0 mm
11:02 -2.3 °C -6.0 °C 991.1 hPa East 13.0 km/h 24.5 km/h 83% 0.0 mm
11:07 -2.3 °C -6.0 °C 991.1 hPa East 16.6 km/h 24.5 km/h 82% 0.0 mm
11:12 -2.3 °C -6.0 °C 991.1 hPa ENE 23.0 km/h 24.8 km/h 82% 0.0 mm
11:17 -2.3 °C -6.0 °C 991.1 hPa ESE 19.8 km/h 25.9 km/h 81% 0.0 mm
11:22 -2.2 °C -5.0 °C 991.1 hPa ENE 21.9 km/h 25.9 km/h 82% 0.0 mm
11:27 -2.2 °C -6.0 °C 991.1 hPa East 25.6 km/h 25.6 km/h 81% 0.0 mm
11:32 -2.3 °C -6.0 °C 991.1 hPa East 13.7 km/h 25.9 km/h 80% 0.0 mm
11:38 -2.1 °C -6.0 °C 991.1 hPa East 14.3 km/h 25.6 km/h 80% 0.0 mm
11:44 -2.0 °C -6.0 °C 991.1 hPa NE 16.9 km/h 20.6 km/h 80% 0.0 mm
11:49 -1.9 °C -6.0 °C 991.1 hPa East 12.2 km/h 20.6 km/h 79% 0.0 mm
11:54 -1.9 °C -6.0 °C 991.1 hPa ENE 14.0 km/h 21.6 km/h 78% 0.0 mm
11:59 -1.9 °C -6.0 °C 992.1 hPa ENE 13.7 km/h 24.5 km/h 76% 0.0 mm
12:04 -1.8 °C -6.0 °C 992.1 hPa East 9.0 km/h 24.5 km/h 76% 0.0 mm
12:09 -1.7 °C -6.0 °C 992.1 hPa East 9.3 km/h 19.8 km/h 76% 0.0 mm
12:14 -1.6 °C -6.0 °C 991.1 hPa ESE 14.8 km/h 25.9 km/h 75% 0.0 mm
12:19 -1.6 °C -6.0 °C 991.1 hPa East 13.0 km/h 25.9 km/h 74% 0.0 mm
12:25 -1.6 °C -6.0 °C 991.1 hPa East 10.5 km/h 23.3 km/h 73% 0.0 mm
12:30 -1.6 °C -6.0 °C 991.1 hPa East 9.7 km/h 23.3 km/h 72% 0.0 mm
12:35 -1.5 °C -6.0 °C 991.1 hPa East 20.1 km/h 23.3 km/h 72% 0.0 mm
12:40 -1.4 °C -6.0 °C 991.1 hPa East 17.2 km/h 23.3 km/h 71% 0.0 mm
12:45 -1.4 °C -6.0 °C 992.1 hPa East 14.0 km/h 23.3 km/h 71% 0.0 mm
12:50 -1.3 °C -6.0 °C 992.1 hPa East 8.7 km/h 23.8 km/h 71% 0.0 mm
12:55 -1.3 °C -7.0 °C 992.1 hPa East 16.3 km/h 23.8 km/h 70% 0.0 mm
13:00 -1.3 °C -7.0 °C 991.1 hPa NE 15.4 km/h 18.3 km/h 70% 0.0 mm
13:06 -1.3 °C -7.0 °C 991.1 hPa East 10.1 km/h 24.5 km/h 70% 0.0 mm
13:11 -1.2 °C -6.0 °C 991.1 hPa ENE 21.2 km/h 24.5 km/h 71% 0.0 mm
13:16 -1.2 °C -6.0 °C 991.1 hPa East 15.8 km/h 21.2 km/h 71% 0.0 mm
13:21 -1.1 °C -6.0 °C 991.1 hPa East 13.0 km/h 20.9 km/h 71% 0.0 mm
13:26 -1.1 °C -6.0 °C 991.1 hPa East 14.0 km/h 21.9 km/h 71% 0.0 mm
13:31 -1.0 °C -6.0 °C 992.1 hPa East 12.6 km/h 21.9 km/h 71% 0.0 mm
13:36 -0.9 °C -6.0 °C 992.1 hPa ENE 15.1 km/h 21.6 km/h 70% 0.0 mm
13:42 -0.8 °C -7.0 °C 992.1 hPa ESE 14.0 km/h 17.7 km/h 69% 0.0 mm
13:47 -0.7 °C -6.0 °C 992.1 hPa ESE 16.3 km/h 20.1 km/h 70% 0.0 mm
13:52 -0.7 °C -6.0 °C 992.1 hPa NE 12.6 km/h 20.1 km/h 70% 0.0 mm
13:57 -0.6 °C -6.0 °C 992.1 hPa East 10.5 km/h 18.0 km/h 70% 0.0 mm
14:02 -0.6 °C -6.0 °C 992.1 hPa East 10.5 km/h 20.6 km/h 69% 0.0 mm
14:07 -0.5 °C -6.0 °C 992.1 hPa ESE 16.6 km/h 20.6 km/h 69% 0.0 mm
14:12 -0.5 °C -6.0 °C 992.1 hPa ENE 16.9 km/h 19.8 km/h 69% 0.0 mm
14:17 -0.5 °C -6.0 °C 992.1 hPa ENE 16.9 km/h 19.8 km/h 69% 0.0 mm
14:22 -0.5 °C -6.0 °C 992.1 hPa East 12.2 km/h 19.8 km/h 70% 0.0 mm
14:27 -0.5 °C -6.0 °C 992.1 hPa ESE 17.7 km/h 19.8 km/h 70% 0.0 mm
14:32 -0.5 °C -6.0 °C 992.1 hPa SE 15.8 km/h 27.0 km/h 72% 0.0 mm
14:38 -0.6 °C -6.0 °C 992.1 hPa East 16.3 km/h 27.4 km/h 73% 0.0 mm
14:43 -0.6 °C -5.0 °C 992.1 hPa ESE 23.3 km/h 27.4 km/h 74% 0.0 mm
14:48 -0.6 °C -5.0 °C 992.1 hPa East 13.7 km/h 23.3 km/h 74% 0.0 mm
14:53 -0.5 °C -5.0 °C 992.1 hPa ESE 9.0 km/h 23.3 km/h 75% 0.0 mm
14:58 -0.5 °C -5.0 °C 992.1 hPa ESE 9.3 km/h 19.8 km/h 75% 0.0 mm
15:03 -0.5 °C -5.0 °C 992.1 hPa ENE 9.3 km/h 21.2 km/h 76% 0.0 mm
15:08 -0.5 °C -5.0 °C 992.1 hPa East 17.7 km/h 21.2 km/h 76% 0.0 mm
15:13 -0.5 °C -5.0 °C 992.1 hPa East 16.9 km/h 17.7 km/h 77% 0.0 mm
15:18 -0.5 °C -5.0 °C 992.1 hPa East 13.0 km/h 17.7 km/h 78% 0.0 mm
15:23 -0.5 °C -5.0 °C 992.1 hPa ESE 12.2 km/h 19.1 km/h 79% 0.0 mm
15:28 -0.5 °C -5.0 °C 992.1 hPa East 13.0 km/h 19.8 km/h 79% 0.0 mm
15:33 -0.5 °C -5.0 °C 992.1 hPa East 7.9 km/h 19.8 km/h 79% 0.0 mm
15:38 -0.6 °C -4.0 °C 992.1 hPa ESE 17.2 km/h 17.2 km/h 80% 0.0 mm
15:43 -0.6 °C -4.0 °C 992.1 hPa ESE 19.8 km/h 19.8 km/h 80% 0.0 mm
15:48 -0.7 °C -4.0 °C 993.1 hPa SSE 15.8 km/h 20.6 km/h 81% 0.0 mm
15:53 -0.7 °C -4.0 °C 993.1 hPa SE 15.1 km/h 23.3 km/h 82% 0.0 mm
15:58 -0.7 °C -4.0 °C 993.1 hPa East 14.0 km/h 23.3 km/h 83% 0.0 mm
16:03 -0.8 °C -4.0 °C 992.1 hPa East 12.6 km/h 17.7 km/h 84% 0.0 mm
16:08 -0.8 °C -4.0 °C 992.1 hPa East 9.3 km/h 17.7 km/h 86% 0.0 mm
16:13 -0.8 °C -4.0 °C 992.1 hPa ENE 9.3 km/h 21.6 km/h 86% 0.0 mm
16:18 -0.8 °C -3.0 °C 992.1 hPa ESE 11.1 km/h 21.6 km/h 87% 0.0 mm
16:23 -0.8 °C -3.0 °C 992.1 hPa ENE 8.7 km/h 17.7 km/h 87% 0.0 mm
16:28 -0.8 °C -3.0 °C 992.1 hPa NE 11.6 km/h 14.8 km/h 88% 0.0 mm
16:33 -0.8 °C -3.0 °C 992.1 hPa East 11.9 km/h 16.9 km/h 89% 0.0 mm
16:38 -0.9 °C -3.0 °C 992.1 hPa ESE 7.9 km/h 16.9 km/h 89% 0.0 mm
16:43 -0.8 °C -3.0 °C 992.1 hPa East 14.0 km/h 16.6 km/h 89% 0.0 mm
16:48 -0.8 °C -3.0 °C 992.1 hPa East 14.0 km/h 16.3 km/h 90% 0.0 mm
16:53 -0.8 °C -3.0 °C 992.1 hPa East 7.9 km/h 16.3 km/h 90% 0.0 mm
16:59 -0.8 °C -3.0 °C 993.1 hPa ESE 14.0 km/h 19.8 km/h 90% 0.0 mm
17:04 -0.8 °C -3.0 °C 993.1 hPa East 8.7 km/h 19.8 km/h 90% 0.0 mm
17:09 -0.8 °C -3.0 °C 993.1 hPa East 13.0 km/h 15.8 km/h 90% 0.0 mm
17:14 -0.8 °C -3.0 °C 992.1 hPa ENE 13.0 km/h 15.4 km/h 90% 0.0 mm
17:19 -0.7 °C -3.0 °C 992.1 hPa East 7.2 km/h 15.4 km/h 90% 0.0 mm
17:27 -0.7 °C -3.0 °C 992.1 hPa ENE 14.0 km/h 14.0 km/h 91% 0.0 mm
17:34 -0.7 °C -3.0 °C 992.1 hPa East 10.5 km/h 14.0 km/h 91% 0.0 mm
17:40 -0.7 °C -3.0 °C 992.1 hPa East 11.9 km/h 14.8 km/h 91% 0.0 mm
17:45 -0.8 °C -3.0 °C 992.1 hPa East 13.0 km/h 16.3 km/h 91% 0.0 mm
17:50 -0.8 °C -3.0 °C 992.1 hPa East 8.7 km/h 16.6 km/h 91% 0.0 mm
17:55 -0.8 °C -3.0 °C 992.1 hPa ENE 7.9 km/h 16.6 km/h 91% 0.0 mm
18:01 -0.8 °C -3.0 °C 993.1 hPa ESE 9.3 km/h 14.0 km/h 91% 0.0 mm
18:06 -0.9 °C -3.0 °C 993.1 hPa East 5.8 km/h 12.6 km/h 91% 0.0 mm
18:11 -0.9 °C -3.0 °C 993.1 hPa East 7.9 km/h 12.6 km/h 91% 0.0 mm
18:16 -0.9 °C -3.0 °C 993.1 hPa East 9.3 km/h 17.2 km/h 91% 0.0 mm
18:21 -0.9 °C -3.0 °C 993.1 hPa ESE 9.0 km/h 17.2 km/h 91% 0.0 mm
18:26 -0.9 °C -3.0 °C 993.1 hPa East 9.0 km/h 16.3 km/h 91% 0.0 mm
18:31 -0.9 °C -3.0 °C 993.1 hPa East 9.7 km/h 14.0 km/h 91% 0.0 mm
18:36 -0.9 °C -3.0 °C 993.1 hPa East 10.1 km/h 14.0 km/h 91% 0.0 mm
18:41 -0.9 °C -3.0 °C 993.1 hPa East 8.7 km/h 15.4 km/h 91% 0.0 mm
18:46 -0.9 °C -3.0 °C 993.1 hPa East 7.9 km/h 15.8 km/h 91% 0.0 mm
18:51 -0.9 °C -3.0 °C 993.1 hPa East 10.5 km/h 15.8 km/h 91% 0.0 mm
18:56 -0.8 °C -3.0 °C 993.1 hPa East 11.9 km/h 14.0 km/h 91% 0.0 mm
19:01 -0.8 °C -3.0 °C 993.1 hPa East 11.6 km/h 14.0 km/h 91% 0.0 mm
19:06 -0.8 °C -3.0 °C 993.1 hPa East 11.9 km/h 14.3 km/h 91% 0.0 mm
19:11 -0.8 °C -3.0 °C 993.1 hPa East 11.9 km/h 14.8 km/h 92% 0.0 mm
19:16 -0.8 °C -3.0 °C 993.1 hPa ENE 9.0 km/h 14.8 km/h 92% 0.0 mm
19:21 -0.7 °C -3.0 °C 993.1 hPa ESE 12.6 km/h 13.0 km/h 92% 0.0 mm
19:26 -0.7 °C -3.0 °C 993.1 hPa ENE 12.6 km/h 12.6 km/h 92% 0.0 mm
19:31 -0.7 °C -3.0 °C 993.1 hPa East 9.0 km/h 13.0 km/h 92% 0.0 mm
19:36 -0.6 °C -3.0 °C 993.1 hPa East 10.5 km/h 13.0 km/h 92% 0.0 mm
19:41 -0.6 °C -3.0 °C 993.1 hPa East 11.6 km/h 13.7 km/h 92% 0.0 mm
19:46 -0.6 °C -3.0 °C 993.1 hPa East 12.2 km/h 16.6 km/h 92% 0.0 mm
19:51 -0.5 °C -3.0 °C 993.1 hPa ESE 11.6 km/h 16.6 km/h 92% 0.0 mm
19:56 -0.5 °C -3.0 °C 993.1 hPa East 10.5 km/h 14.0 km/h 92% 0.0 mm
20:02 -0.5 °C -2.0 °C 993.1 hPa ENE 9.0 km/h 16.3 km/h 93% 0.0 mm
20:07 -0.5 °C -2.0 °C 993.1 hPa East 9.3 km/h 16.3 km/h 93% 0.0 mm
20:12 -0.5 °C -2.0 °C 993.1 hPa East 16.3 km/h 16.3 km/h 93% 0.0 mm
20:17 -0.4 °C -2.0 °C 993.1 hPa East 9.0 km/h 16.3 km/h 93% 0.0 mm
20:22 -0.4 °C -2.0 °C 993.1 hPa East 9.3 km/h 13.7 km/h 93% 0.0 mm
20:27 -0.3 °C -2.0 °C 993.1 hPa East 8.7 km/h 13.7 km/h 93% 0.0 mm
20:32 -0.3 °C -2.0 °C 993.1 hPa East 8.7 km/h 14.0 km/h 93% 0.0 mm
20:37 -0.3 °C -2.0 °C 993.1 hPa East 11.9 km/h 14.0 km/h 93% 0.0 mm
20:42 -0.2 °C -2.0 °C 993.1 hPa NE 10.1 km/h 14.0 km/h 93% 0.0 mm
20:47 -0.2 °C -2.0 °C 992.1 hPa ENE 11.6 km/h 13.7 km/h 93% 0.0 mm
20:52 -0.2 °C -2.0 °C 992.1 hPa East 9.0 km/h 13.7 km/h 93% 0.0 mm
20:57 -0.2 °C -2.0 °C 992.1 hPa ENE 7.9 km/h 14.0 km/h 93% 0.0 mm
21:02 -0.2 °C -2.0 °C 993.1 hPa East 9.7 km/h 14.0 km/h 93% 0.0 mm
21:07 -0.2 °C -2.0 °C 993.1 hPa East 7.9 km/h 11.9 km/h 93% 0.0 mm
21:12 -0.2 °C -2.0 °C 993.1 hPa East 9.0 km/h 13.0 km/h 93% 0.0 mm
21:17 -0.2 °C -2.0 °C 993.1 hPa ESE 6.1 km/h 13.0 km/h 93% 0.0 mm
21:23 -0.1 °C -2.0 °C 993.1 hPa NE 9.3 km/h 13.0 km/h 93% 0.0 mm
21:28 -0.1 °C -2.0 °C 993.1 hPa East 10.5 km/h 13.7 km/h 93% 0.0 mm
21:33 -0.1 °C -2.0 °C 993.1 hPa East 10.5 km/h 13.7 km/h 93% 0.0 mm
21:38 -0.1 °C -2.0 °C 993.1 hPa East 12.2 km/h 12.2 km/h 93% 0.0 mm
21:43 -0.1 °C -2.0 °C 993.1 hPa SE 10.1 km/h 14.0 km/h 93% 0.0 mm
21:48 -0.1 °C -2.0 °C 993.1 hPa ENE 5.5 km/h 14.0 km/h 93% 0.0 mm
21:53 -0.1 °C -2.0 °C 993.1 hPa ENE 6.9 km/h 13.7 km/h 93% 0.0 mm
21:58 -0.1 °C -2.0 °C 993.1 hPa ENE 7.6 km/h 13.7 km/h 94% 0.0 mm
22:03 -0.1 °C -2.0 °C 993.1 hPa East 6.1 km/h 10.1 km/h 94% 0.0 mm
22:08 0.0 °C -2.0 °C 993.1 hPa East 6.1 km/h 10.1 km/h 94% 0.0 mm
22:13 0.0 °C -2.0 °C 993.1 hPa Calm   10.1 km/h 94% 0.0 mm
22:18 0.0 °C -2.0 °C 993.1 hPa ESE 6.4 km/h 10.1 km/h 93% 0.0 mm
22:23 0.1 °C -1.0 °C 993.1 hPa East 9.7 km/h 11.9 km/h 94% 0.0 mm
22:29 0.1 °C -1.0 °C 993.1 hPa East 5.5 km/h 11.9 km/h 94% 0.0 mm
22:34 0.1 °C -1.0 °C 993.1 hPa East 6.1 km/h 11.6 km/h 94% 0.0 mm
22:39 0.1 °C -1.0 °C 993.1 hPa East 5.8 km/h 11.6 km/h 94% 0.0 mm
22:44 0.1 °C -1.0 °C 993.1 hPa East 5.0 km/h 9.0 km/h 94% 0.0 mm
22:49 0.1 °C -1.0 °C 993.1 hPa Calm   10.1 km/h 94% 0.0 mm
22:54 0.1 °C -1.0 °C 993.1 hPa ESE 2.6 km/h 10.1 km/h 94% 0.0 mm
22:59 0.1 °C -1.0 °C 994.1 hPa Calm   9.3 km/h 93% 0.0 mm
23:04 0.1 °C -1.0 °C 994.1 hPa Calm   8.7 km/h 93% 0.0 mm
23:09 0.1 °C -1.0 °C 994.1 hPa East 5.0 km/h 8.7 km/h 93% 0.0 mm
23:14 0.1 °C -1.0 °C 993.1 hPa Calm   5.0 km/h 93% 0.0 mm
23:19 0.0 °C -2.0 °C 993.1 hPa Calm   4.0 km/h 93% 0.0 mm
23:24 0.0 °C -2.0 °C 993.1 hPa Calm     93% 0.0 mm
23:29 0.0 °C -2.0 °C 993.1 hPa Calm     92% 0.0 mm
23:34 0.0 °C -2.0 °C 993.1 hPa Calm     92% 0.0 mm
23:39 -0.1 °C -2.0 °C 993.1 hPa Calm     92% 0.0 mm
23:44 -0.1 °C -2.0 °C 993.1 hPa Calm     92% 0.0 mm
23:49 -0.2 °C -2.0 °C 993.1 hPa Calm     92% 0.0 mm
23:54 -0.2 °C -2.0 °C 993.1 hPa Calm     92% 0.0 mm
23:59 -0.3 °C -2.0 °C 993.1 hPa Calm     91% 0.0 mm
Données Historique de Météo Turbie

Mise a jour : 20/06/2018 19:03:18
Généré par Cumulus 1.9.4 (1099)